Find Local Weather

World > North America > United States > Michigan

Ann Arbor, Michigan Regional Weather

Lat: 42.28N, Lon: 83.73W
Wx Zone: MIZ075
Warning FLW WEATHER ALERT - (More Info. Click Here) Warning
Feedback
Expires:201810180300;;347465
ASUS43 KDTX 180210
RWRMI 
MICHIGAN HOURLY REGIONAL WEATHER ROUNDUP
NATIONAL WEATHER SERVICE DETROIT/PONTIAC MI
1000 PM EDT WED OCT 17 2018

NOTE: "FAIR" INDICATES FEW OR NO CLOUDS BELOW 12,000 FEET WITH NO
SIGNIFICANT WEATHER AND/OR OBSTRUCTION TO VISIBILITY.


MIZ047>049-052>055-059>063-066>070-074>076-081>083-180300-
SOUTHEAST LOWER MICHIGAN
  
CITY           SKY/WX    TMP DP  RH WIND       PRES   REMARKS
ADRIAN         FAIR      36  26  67 W5        30.40R WCI  32          
ALMA           CLOUDY    40  29  65 NW3       30.38R                  
ANN ARBOR      FAIR      32  24  72 SW6       30.36R WCI  26          
BAD AXE        CLOUDY    38  28  69 NW13G22   30.33R WCI  30          
CARO           CLOUDY    38  30  71 NW14G20   30.35R WCI  30          
DETROIT CITY   FAIR      40  24  53 W6        30.35R                  
DETROIT        FAIR      40  23  50 W9        30.37R WCI  34          
FLINT          CLOUDY    38  26  62 W9        30.36R WCI  31          
GROSSE ILE     FAIR      40  27  60 W6        30.36R                  
HILLSDALE      FAIR      32  27  80 CALM      30.37R                  
HOWELL         FAIR      36  26  67 W5        30.36R WCI  32          

CITY           SKY/WX    TMP DP  RH WIND       PRES   REMARKS
JACKSON        FAIR      34  26  72 W3        30.38R                  
LAMBERTVILLE   FAIR      40  26  57 W3        30.39R                  
LANSING        FAIR      36  26  67 W7        30.38R WCI  30          
LAPEER         CLOUDY    40  25  54 NW9       30.34R WCI  35          
MASON          FAIR      39  24  56 W3        30.38R                  
MONROE         FAIR      36  28  73 W5        30.37R WCI  32          
MT. CLEMENS    PTCLDY    40  24  52 W9        30.32R WCI  34          
PONTIAC        FAIR      37  24  59 W12       30.33R WCI  29          
PORT HOPE        N/A     39  26  59 NW21G36   30.30R WCI  29          
PORT HURON     CLOUDY    41  23  48 NW7       30.32R                  
TRI CITIES     FAIR      38  30  73 NW9       30.38R WCI  31          
MIDLAND        MOCLDY    37  30  77 NW3       30.37R                  
TROY           FAIR      41  22  46 W5        30.36R                  
SAGINAW HB     MOCLDY    37  30  75 N7        30.37R WCI  32          
$$

SKY/WX - Weather  TMP - Temperature  DP - Dew Point  RH - Relative Humidity
WIND - Wind Direction/Speed PRES - Barometric Pressure
Opt in/Opt out of Taboola Video Ads